Time,TemperatureF,DewpointF,PressureIn,WindDirection,WindDirectionDegrees,WindSpeedMPH,WindSpeedGustMPH,Humidity,HourlyPrecipIn,Conditions,Clouds,dailyrainin,SoftwareType,DateUTC
2013-05-31 00:01:00,73.2,63.6,30.09,SE,126,0.0,0.0,72,0.00,,,0.00,Wunderground v.1.12,2013-05-31 04:01:00,
2013-05-31 00:04:00,73.2,63.6,30.09,SE,126,0.0,0.0,72,0.00,,,0.00,Wunderground v.1.12,2013-05-31 04:04:00,
2013-05-31 00:05:00,73.0,63.4,30.09,SE,126,0.0,0.0,72,0.00,,,0.00,Wunderground v.1.12,2013-05-31 04:05:00,
2013-05-31 00:07:00,73.0,63.8,30.09,SE,126,0.0,0.0,73,0.00,,,0.00,Wunderground v.1.12,2013-05-31 04:07:00,
2013-05-31 00:12:00,72.8,63.6,30.09,SE,126,0.0,0.0,73,0.00,,,0.00,Wunderground v.1.12,2013-05-31 04:12:00,
2013-05-31 00:17:00,72.7,63.5,30.09,SE,126,0.0,0.0,73,0.00,,,0.00,Wunderground v.1.12,2013-05-31 04:17:00,
2013-05-31 00:22:00,72.5,63.7,30.09,SE,126,0.0,0.0,74,0.00,,,0.00,Wunderground v.1.12,2013-05-31 04:22:00,
2013-05-31 00:28:00,72.1,63.7,30.09,SE,126,0.0,0.0,75,0.00,,,0.00,Wunderground v.1.12,2013-05-31 04:28:00,
2013-05-31 00:33:00,71.8,63.8,30.09,SE,126,0.0,0.0,76,0.00,,,0.00,Wunderground v.1.12,2013-05-31 04:33:00,
2013-05-31 00:38:00,71.6,64.0,30.09,SE,126,0.0,0.0,77,0.00,,,0.00,Wunderground v.1.12,2013-05-31 04:38:00,
2013-05-31 00:44:00,71.5,64.3,30.10,SE,126,0.0,0.0,78,0.00,,,0.00,Wunderground v.1.12,2013-05-31 04:44:00,
2013-05-31 00:49:00,71.6,64.4,30.10,SE,126,0.0,0.0,78,0.00,,,0.00,Wunderground v.1.12,2013-05-31 04:49:00,
2013-05-31 00:54:00,72.0,64.8,30.10,SE,126,0.0,0.0,78,0.00,,,0.00,Wunderground v.1.12,2013-05-31 04:54:00,
2013-05-31 00:59:00,72.1,64.5,30.09,SE,126,0.0,0.0,77,0.00,,,0.00,Wunderground v.1.12,2013-05-31 04:59:00,
2013-05-31 01:04:00,72.1,64.5,30.09,SE,126,0.0,0.0,77,0.00,,,0.00,Wunderground v.1.12,2013-05-31 05:04:00,
2013-05-31 01:09:00,72.7,64.7,30.09,SE,126,0.0,0.0,76,0.00,,,0.00,Wunderground v.1.12,2013-05-31 05:09:00,
2013-05-31 01:14:00,73.0,64.6,30.09,SE,126,0.0,0.0,75,0.00,,,0.00,Wunderground v.1.12,2013-05-31 05:14:00,
2013-05-31 01:19:00,72.7,64.7,30.09,SE,126,0.0,0.0,76,0.00,,,0.00,Wunderground v.1.12,2013-05-31 05:19:00,
2013-05-31 01:25:00,72.3,64.3,30.09,SE,126,0.0,0.0,76,0.00,,,0.00,Wunderground v.1.12,2013-05-31 05:25:00,
2013-05-31 01:30:00,72.5,64.5,30.09,SE,126,0.0,0.0,76,0.00,,,0.00,Wunderground v.1.12,2013-05-31 05:30:00,
2013-05-31 01:36:00,73.0,64.6,30.09,SE,126,0.0,0.0,75,0.00,,,0.00,Wunderground v.1.12,2013-05-31 05:36:00,
2013-05-31 01:41:00,73.2,64.4,30.09,SE,126,0.0,0.0,74,0.00,,,0.00,Wunderground v.1.12,2013-05-31 05:41:00,
2013-05-31 01:46:00,73.3,64.5,30.09,SE,126,0.0,0.0,74,0.00,,,0.00,Wunderground v.1.12,2013-05-31 05:46:00,
2013-05-31 01:51:00,73.5,64.3,30.09,SE,126,0.0,0.0,73,0.00,,,0.00,Wunderground v.1.12,2013-05-31 05:51:00,
2013-05-31 01:56:00,73.5,64.3,30.09,SE,126,0.0,0.0,73,0.00,,,0.00,Wunderground v.1.12,2013-05-31 05:56:00,
2013-05-31 02:01:00,73.5,64.3,30.08,SE,126,0.0,0.0,73,0.00,,,0.00,Wunderground v.1.12,2013-05-31 06:01:00,
2013-05-31 02:06:00,73.3,64.5,30.08,SE,126,0.0,0.0,74,0.00,,,0.00,Wunderground v.1.12,2013-05-31 06:06:00,
2013-05-31 02:11:00,73.3,64.5,30.08,SE,126,0.0,0.0,74,0.00,,,0.00,Wunderground v.1.12,2013-05-31 06:11:00,
2013-05-31 02:16:00,73.3,64.5,30.09,SE,126,0.0,0.0,74,0.00,,,0.00,Wunderground v.1.12,2013-05-31 06:16:00,
2013-05-31 02:21:00,73.3,64.5,30.09,SE,126,0.0,0.0,74,0.00,,,0.00,Wunderground v.1.12,2013-05-31 06:21:00,
2013-05-31 02:26:00,73.3,64.5,30.09,SE,126,0.0,0.0,74,0.00,,,0.00,Wunderground v.1.12,2013-05-31 06:26:00,
2013-05-31 02:31:00,73.3,64.5,30.08,SE,126,0.0,0.0,74,0.00,,,0.00,Wunderground v.1.12,2013-05-31 06:31:00,
2013-05-31 02:36:00,73.2,64.4,30.08,SE,126,0.0,0.0,74,0.00,,,0.00,Wunderground v.1.12,2013-05-31 06:36:00,
2013-05-31 02:41:00,73.2,64.4,30.08,SE,126,0.0,0.0,74,0.00,,,0.00,Wunderground v.1.12,2013-05-31 06:41:00,
2013-05-31 02:47:00,73.0,64.6,30.08,SE,126,0.0,0.0,75,0.00,,,0.00,Wunderground v.1.12,2013-05-31 06:47:00,
2013-05-31 02:52:00,72.8,64.4,30.08,SE,126,0.0,0.0,75,0.00,,,0.00,Wunderground v.1.12,2013-05-31 06:52:00,
2013-05-31 02:56:00,72.7,64.7,30.08,SE,126,0.0,0.0,76,0.00,,,0.00,Wunderground v.1.12,2013-05-31 06:56:00,
2013-05-31 03:01:00,72.5,64.9,30.08,SE,126,0.0,0.0,77,0.00,,,0.00,Wunderground v.1.12,2013-05-31 07:01:00,
2013-05-31 03:07:00,72.3,64.7,30.08,SE,126,0.0,0.0,77,0.00,,,0.00,Wunderground v.1.12,2013-05-31 07:07:00,
2013-05-31 03:12:00,72.3,64.7,30.08,SE,126,0.0,0.0,77,0.00,,,0.00,Wunderground v.1.12,2013-05-31 07:12:00,
2013-05-31 03:17:00,72.3,64.7,30.08,SE,140,0.0,0.0,77,0.00,,,0.00,Wunderground v.1.12,2013-05-31 07:17:00,
2013-05-31 03:22:00,72.5,64.9,30.08,SE,140,0.0,0.0,77,0.00,,,0.00,Wunderground v.1.12,2013-05-31 07:22:00,
2013-05-31 03:27:00,72.7,65.1,30.08,SE,140,0.0,0.0,77,0.00,,,0.00,Wunderground v.1.12,2013-05-31 07:27:00,
2013-05-31 03:32:00,72.5,64.9,30.08,SE,140,0.0,0.0,77,0.00,,,0.00,Wunderground v.1.12,2013-05-31 07:32:00,
2013-05-31 03:37:00,72.3,65.1,30.08,SE,140,0.0,0.0,78,0.00,,,0.00,Wunderground v.1.12,2013-05-31 07:37:00,
2013-05-31 03:42:00,71.8,64.6,30.08,SE,140,0.0,0.0,78,0.00,,,0.00,Wunderground v.1.12,2013-05-31 07:42:00,
2013-05-31 03:47:00,71.5,65.0,30.08,SE,140,0.0,0.0,80,0.00,,,0.00,Wunderground v.1.12,2013-05-31 07:47:00,
2013-05-31 03:52:00,71.3,64.8,30.08,SE,140,0.0,0.0,80,0.00,,,0.00,Wunderground v.1.12,2013-05-31 07:52:00,
2013-05-31 03:57:00,71.1,65.0,30.08,SE,140,0.0,0.0,81,0.00,,,0.00,Wunderground v.1.12,2013-05-31 07:57:00,
2013-05-31 04:02:00,70.8,64.7,30.09,SE,140,0.0,0.0,81,0.00,,,0.00,Wunderground v.1.12,2013-05-31 08:02:00,
2013-05-31 04:07:00,70.6,64.5,30.09,SE,140,0.0,0.0,81,0.00,,,0.00,Wunderground v.1.12,2013-05-31 08:07:00,
2013-05-31 04:12:00,70.4,64.6,30.08,SE,140,0.0,0.0,82,0.00,,,0.00,Wunderground v.1.12,2013-05-31 08:12:00,
2013-05-31 04:17:00,70.3,64.9,30.08,SE,140,0.0,0.0,83,0.00,,,0.00,Wunderground v.1.12,2013-05-31 08:17:00,
2013-05-31 04:22:00,70.1,65.0,30.08,SE,140,0.0,0.0,84,0.00,,,0.00,Wunderground v.1.12,2013-05-31 08:22:00,
2013-05-31 04:27:00,69.9,65.2,30.09,SE,140,0.0,0.0,85,0.00,,,0.00,Wunderground v.1.12,2013-05-31 08:27:00,
2013-05-31 04:32:00,69.9,65.2,30.09,SE,140,0.0,0.0,85,0.00,,,0.00,Wunderground v.1.12,2013-05-31 08:32:00,
2013-05-31 04:37:00,69.9,65.2,30.09,SE,140,0.0,0.0,85,0.00,,,0.00,Wunderground v.1.12,2013-05-31 08:37:00,
2013-05-31 04:42:00,69.8,65.1,30.09,SE,140,0.0,0.0,85,0.00,,,0.00,Wunderground v.1.12,2013-05-31 08:42:00,
2013-05-31 04:47:00,69.6,65.2,30.09,SE,140,0.0,0.0,86,0.00,,,0.00,Wunderground v.1.12,2013-05-31 08:47:00,
2013-05-31 04:52:00,69.6,65.2,30.09,SE,140,0.0,0.0,86,0.00,,,0.00,Wunderground v.1.12,2013-05-31 08:52:00,
2013-05-31 04:58:00,69.4,65.4,30.09,SE,140,0.0,0.0,87,0.00,,,0.00,Wunderground v.1.12,2013-05-31 08:58:00,
2013-05-31 05:03:00,69.4,65.4,30.09,SE,140,0.0,0.0,87,0.00,,,0.00,Wunderground v.1.12,2013-05-31 09:03:00,
2013-05-31 05:08:00,69.6,65.9,30.09,SE,140,0.0,0.0,88,0.00,,,0.00,Wunderground v.1.12,2013-05-31 09:08:00,
2013-05-31 05:14:00,69.9,65.9,30.09,SE,140,0.0,0.0,87,0.00,,,0.00,Wunderground v.1.12,2013-05-31 09:14:00,
2013-05-31 05:19:00,70.1,66.0,30.09,SE,140,0.0,0.0,87,0.00,,,0.00,Wunderground v.1.12,2013-05-31 09:19:00,
2013-05-31 05:24:00,70.3,65.9,30.09,SE,140,0.0,0.0,86,0.00,,,0.00,Wunderground v.1.12,2013-05-31 09:24:00,
2013-05-31 05:29:00,70.6,66.2,30.09,SE,140,0.0,0.0,86,0.00,,,0.00,Wunderground v.1.12,2013-05-31 09:29:00,
2013-05-31 05:34:00,70.9,66.2,30.09,SE,140,0.0,0.0,85,0.00,,,0.00,Wunderground v.1.12,2013-05-31 09:34:00,
2013-05-31 05:39:00,70.8,65.7,30.09,SE,140,0.0,0.0,84,0.00,,,0.00,Wunderground v.1.12,2013-05-31 09:39:00,
2013-05-31 05:44:00,70.6,65.5,30.09,SE,140,0.0,0.0,84,0.00,,,0.00,Wunderground v.1.12,2013-05-31 09:44:00,
2013-05-31 05:49:00,70.4,65.3,30.09,SE,140,0.0,0.0,84,0.00,,,0.00,Wunderground v.1.12,2013-05-31 09:49:00,
2013-05-31 05:55:00,70.3,65.6,30.09,SE,140,0.0,0.0,85,0.00,,,0.00,Wunderground v.1.12,2013-05-31 09:55:00,
2013-05-31 06:00:00,70.1,65.4,30.10,SE,140,0.0,0.0,85,0.00,,,0.00,Wunderground v.1.12,2013-05-31 10:00:00,
2013-05-31 06:05:00,70.1,65.7,30.10,SE,140,0.0,0.0,86,0.00,,,0.00,Wunderground v.1.12,2013-05-31 10:05:00,
2013-05-31 06:10:00,69.9,65.5,30.10,SE,140,0.0,0.0,86,0.00,,,0.00,Wunderground v.1.12,2013-05-31 10:10:00,
2013-05-31 06:15:00,69.9,65.9,30.10,SE,140,0.0,0.0,87,0.00,,,0.00,Wunderground v.1.12,2013-05-31 10:15:00,
2013-05-31 06:20:00,69.8,65.8,30.10,SE,140,0.0,0.0,87,0.00,,,0.00,Wunderground v.1.12,2013-05-31 10:20:00,
2013-05-31 06:25:00,69.8,65.8,30.10,SE,140,0.0,0.0,87,0.00,,,0.00,Wunderground v.1.12,2013-05-31 10:25:00,
2013-05-31 06:30:00,69.6,65.9,30.11,SE,140,0.0,0.0,88,0.00,,,0.00,Wunderground v.1.12,2013-05-31 10:30:00,
2013-05-31 06:35:00,69.6,65.9,30.11,SE,140,0.0,0.0,88,0.00,,,0.00,Wunderground v.1.12,2013-05-31 10:35:00,
2013-05-31 06:40:00,69.8,66.1,30.11,SE,140,0.0,0.0,88,0.00,,,0.00,Wunderground v.1.12,2013-05-31 10:40:00,
2013-05-31 06:45:00,69.9,66.2,30.11,SE,140,0.0,0.0,88,0.00,,,0.00,Wunderground v.1.12,2013-05-31 10:45:00,
2013-05-31 06:50:00,70.1,66.4,30.11,SE,140,0.0,0.0,88,0.00,,,0.00,Wunderground v.1.12,2013-05-31 10:50:00,
2013-05-31 06:55:00,70.3,66.6,30.11,SE,140,0.0,0.0,88,0.00,,,0.00,Wunderground v.1.12,2013-05-31 10:55:00,
2013-05-31 07:01:00,70.6,66.5,30.11,SE,140,0.0,0.0,87,0.00,,,0.00,Wunderground v.1.12,2013-05-31 11:01:00,
2013-05-31 07:06:00,70.9,66.5,30.11,SE,140,0.0,0.0,86,0.00,,,0.00,Wunderground v.1.12,2013-05-31 11:06:00,
2013-05-31 07:11:00,71.1,66.7,30.11,SE,140,0.0,0.0,86,0.00,,,0.00,Wunderground v.1.12,2013-05-31 11:11:00,
2013-05-31 07:16:00,71.3,66.6,30.11,SE,140,0.0,0.0,85,0.00,,,0.00,Wunderground v.1.12,2013-05-31 11:16:00,
2013-05-31 07:21:00,71.6,66.8,30.11,SE,140,0.0,0.0,85,0.00,,,0.00,Wunderground v.1.12,2013-05-31 11:21:00,
2013-05-31 07:26:00,71.8,66.7,30.11,SE,140,0.0,0.0,84,0.00,,,0.00,Wunderground v.1.12,2013-05-31 11:26:00,
2013-05-31 07:31:00,71.8,66.7,30.11,SE,140,0.0,0.0,84,0.00,,,0.00,Wunderground v.1.12,2013-05-31 11:31:00,
2013-05-31 07:36:00,72.0,66.9,30.11,SE,140,0.0,0.0,84,0.00,,,0.00,Wunderground v.1.12,2013-05-31 11:36:00,
2013-05-31 07:41:00,72.3,67.2,30.11,SE,140,0.0,0.0,84,0.00,,,0.00,Wunderground v.1.12,2013-05-31 11:41:00,
2013-05-31 07:46:00,72.7,67.9,30.11,SE,140,0.0,0.0,85,0.00,,,0.00,Wunderground v.1.12,2013-05-31 11:46:00,
2013-05-31 07:51:00,72.7,67.9,30.11,SE,140,0.0,0.0,85,0.00,,,0.00,Wunderground v.1.12,2013-05-31 11:51:00,
2013-05-31 07:56:00,72.5,68.1,30.11,SE,140,0.0,0.0,86,0.00,,,0.00,Wunderground v.1.12,2013-05-31 11:56:00,
2013-05-31 08:01:00,72.5,68.1,30.11,SE,140,0.0,0.0,86,0.00,,,0.00,Wunderground v.1.12,2013-05-31 12:01:00,
2013-05-31 08:06:00,72.5,68.1,30.11,SE,140,0.0,0.0,86,0.00,,,0.00,Wunderground v.1.12,2013-05-31 12:06:00,
2013-05-31 08:11:00,72.3,67.9,30.11,SE,140,0.0,0.0,86,0.00,,,0.00,Wunderground v.1.12,2013-05-31 12:11:00,
2013-05-31 08:17:00,72.3,67.9,30.11,SE,140,0.0,0.0,86,0.00,,,0.00,Wunderground v.1.12,2013-05-31 12:17:00,
2013-05-31 08:22:00,72.5,68.1,30.11,SE,140,0.0,0.0,86,0.00,,,0.00,Wunderground v.1.12,2013-05-31 12:22:00,
2013-05-31 08:27:00,72.5,68.1,30.11,SE,140,0.0,0.0,86,0.00,,,0.00,Wunderground v.1.12,2013-05-31 12:27:00,
2013-05-31 08:32:00,72.5,68.1,30.11,SE,140,0.0,0.0,86,0.00,,,0.00,Wunderground v.1.12,2013-05-31 12:32:00,
2013-05-31 08:37:00,72.5,67.7,30.11,SE,138,0.0,0.0,85,0.00,,,0.00,Wunderground v.1.12,2013-05-31 12:37:00,
2013-05-31 08:42:00,72.5,67.7,30.11,SE,138,0.0,0.0,85,0.00,,,0.00,Wunderground v.1.12,2013-05-31 12:42:00,
2013-05-31 08:47:00,72.7,67.9,30.11,SE,138,0.0,0.0,85,0.00,,,0.00,Wunderground v.1.12,2013-05-31 12:47:00,
2013-05-31 08:52:00,72.7,68.3,30.11,SE,138,0.0,0.0,86,0.00,,,0.00,Wunderground v.1.12,2013-05-31 12:52:00,
2013-05-31 08:57:00,73.0,68.6,30.11,SE,138,0.0,0.0,86,0.00,,,0.00,Wunderground v.1.12,2013-05-31 12:57:00,
2013-05-31 09:02:00,73.2,68.8,30.11,SE,138,0.0,0.0,86,0.00,,,0.00,Wunderground v.1.12,2013-05-31 13:02:00,
2013-05-31 09:07:00,73.3,68.5,30.11,SE,138,0.0,0.0,85,0.00,,,0.00,Wunderground v.1.12,2013-05-31 13:07:00,
2013-05-31 09:12:00,73.7,68.9,30.11,SE,138,0.0,0.0,85,0.00,,,0.00,Wunderground v.1.12,2013-05-31 13:12:00,
2013-05-31 09:17:00,74.0,68.5,30.11,SE,138,0.0,0.0,83,0.00,,,0.00,Wunderground v.1.12,2013-05-31 13:17:00,
2013-05-31 09:22:00,74.4,68.9,30.11,SE,138,0.0,0.0,83,0.00,,,0.00,Wunderground v.1.12,2013-05-31 13:22:00,
2013-05-31 09:27:00,74.7,68.8,30.11,SE,138,0.0,0.0,82,0.00,,,0.00,Wunderground v.1.12,2013-05-31 13:27:00,
2013-05-31 09:32:00,75.1,68.9,30.11,SE,138,0.0,0.0,81,0.00,,,0.00,Wunderground v.1.12,2013-05-31 13:32:00,
2013-05-31 09:37:00,75.3,69.1,30.11,SE,138,0.0,0.0,81,0.00,,,0.00,Wunderground v.1.12,2013-05-31 13:37:00,
2013-05-31 09:42:00,75.4,68.8,30.11,SE,138,0.0,0.0,80,0.00,,,0.00,Wunderground v.1.12,2013-05-31 13:42:00,
2013-05-31 09:47:00,75.6,69.4,30.11,SE,138,0.0,0.0,81,0.00,,,0.00,Wunderground v.1.12,2013-05-31 13:47:00,
2013-05-31 09:52:00,76.0,69.4,30.11,SE,138,0.0,0.0,80,0.00,,,0.00,Wunderground v.1.12,2013-05-31 13:52:00,
2013-05-31 09:57:00,76.1,69.5,30.11,SE,138,0.0,0.0,80,0.00,,,0.00,Wunderground v.1.12,2013-05-31 13:57:00,
2013-05-31 10:02:00,76.3,69.3,30.11,WSW,246,0.0,0.0,79,0.00,,,0.00,Wunderground v.1.12,2013-05-31 14:02:00,
2013-05-31 10:08:00,76.7,69.3,30.11,WSW,246,0.0,0.0,78,0.00,,,0.00,Wunderground v.1.12,2013-05-31 14:08:00,
2013-05-31 10:13:00,76.8,69.4,30.10,WSW,246,0.0,0.0,78,0.00,,,0.00,Wunderground v.1.12,2013-05-31 14:13:00,
2013-05-31 10:18:00,77.0,69.6,30.10,WSW,246,0.0,0.0,78,0.00,,,0.00,Wunderground v.1.12,2013-05-31 14:18:00,
2013-05-31 10:23:00,77.4,69.2,30.10,West,260,0.0,0.0,76,0.00,,,0.00,Wunderground v.1.12,2013-05-31 14:23:00,
2013-05-31 10:28:00,77.7,69.9,30.11,West,260,0.0,0.0,77,0.00,,,0.00,Wunderground v.1.12,2013-05-31 14:28:00,
2013-05-31 10:33:00,77.9,68.5,30.11,West,260,0.0,0.0,73,0.00,,,0.00,Wunderground v.1.12,2013-05-31 14:33:00,
2013-05-31 10:38:00,78.1,68.7,30.11,West,260,0.0,0.0,73,0.00,,,0.00,Wunderground v.1.12,2013-05-31 14:38:00,
2013-05-31 10:43:00,78.5,69.5,30.11,West,260,0.0,0.0,74,0.00,,,0.00,Wunderground v.1.12,2013-05-31 14:43:00,
2013-05-31 10:49:00,78.8,68.6,30.11,West,260,0.0,0.0,71,0.00,,,0.00,Wunderground v.1.12,2013-05-31 14:49:00,
2013-05-31 10:54:00,79.2,67.3,30.11,NNW,328,0.0,0.0,67,0.00,,,0.00,Wunderground v.1.12,2013-05-31 14:54:00,
2013-05-31 10:59:00,79.9,68.0,30.11,WNW,284,0.0,0.0,67,0.00,,,0.00,Wunderground v.1.12,2013-05-31 14:59:00,
2013-05-31 11:04:00,80.5,67.6,30.11,WNW,284,0.0,0.0,65,0.00,,,0.00,Wunderground v.1.12,2013-05-31 15:04:00,
2013-05-31 11:09:00,80.7,68.7,30.11,WNW,284,0.0,0.0,67,0.00,,,0.00,Wunderground v.1.12,2013-05-31 15:09:00,
2013-05-31 11:14:00,80.9,67.6,30.10,WNW,284,0.0,0.0,64,0.00,,,0.00,Wunderground v.1.12,2013-05-31 15:14:00,
2013-05-31 11:19:00,81.1,68.2,30.10,WNW,284,0.0,0.0,65,0.00,,,0.00,Wunderground v.1.12,2013-05-31 15:19:00,
2013-05-31 11:24:00,81.2,67.9,30.10,WNW,284,0.0,0.0,64,0.00,,,0.00,Wunderground v.1.12,2013-05-31 15:24:00,
2013-05-31 11:29:00,81.2,67.4,30.10,WNW,284,0.0,0.0,63,0.00,,,0.00,Wunderground v.1.12,2013-05-31 15:29:00,
2013-05-31 11:34:00,81.4,68.9,30.10,WNW,284,0.0,0.0,66,0.00,,,0.00,Wunderground v.1.12,2013-05-31 15:34:00,
2013-05-31 11:39:00,81.6,68.2,30.10,WNW,284,0.0,0.0,64,0.00,,,0.00,Wunderground v.1.12,2013-05-31 15:39:00,
2013-05-31 11:44:00,82.0,69.5,30.09,WNW,284,0.0,0.0,66,0.00,,,0.00,Wunderground v.1.12,2013-05-31 15:44:00,
2013-05-31 11:49:00,82.2,67.9,30.09,WNW,284,0.0,0.0,62,0.00,,,0.00,Wunderground v.1.12,2013-05-31 15:49:00,
2013-05-31 11:54:00,82.4,69.4,30.09,WNW,284,0.0,0.0,65,0.00,,,0.00,Wunderground v.1.12,2013-05-31 15:54:00,
2013-05-31 11:59:00,83.2,69.8,30.09,WNW,284,0.0,0.0,64,0.00,,,0.00,Wunderground v.1.12,2013-05-31 15:59:00,
2013-05-31 12:04:00,83.6,70.6,30.09,WNW,284,0.0,0.0,65,0.00,,,0.00,Wunderground v.1.12,2013-05-31 16:04:00,
2013-05-31 12:10:00,84.1,71.1,30.09,WNW,284,0.0,0.0,65,0.00,,,0.00,Wunderground v.1.12,2013-05-31 16:10:00,
2013-05-31 12:15:00,84.1,69.7,30.09,WNW,284,0.0,0.0,62,0.00,,,0.00,Wunderground v.1.12,2013-05-31 16:15:00,
2013-05-31 12:20:00,84.3,69.4,30.09,WNW,284,0.0,0.0,61,0.00,,,0.00,Wunderground v.1.12,2013-05-31 16:20:00,
2013-05-31 12:25:00,84.9,70.4,30.09,WNW,284,0.0,0.0,62,0.00,,,0.00,Wunderground v.1.12,2013-05-31 16:25:00,
2013-05-31 12:30:00,85.3,69.3,30.08,WNW,284,0.0,0.0,59,0.00,,,0.00,Wunderground v.1.12,2013-05-31 16:30:00,
2013-05-31 12:35:00,85.7,70.2,30.08,WNW,284,0.0,0.0,60,0.00,,,0.00,Wunderground v.1.12,2013-05-31 16:35:00,
2013-05-31 12:40:00,86.1,69.6,30.08,WNW,284,0.0,0.0,58,0.00,,,0.00,Wunderground v.1.12,2013-05-31 16:40:00,
2013-05-31 12:45:00,86.5,70.0,30.07,WNW,284,0.0,0.0,58,0.00,,,0.00,Wunderground v.1.12,2013-05-31 16:45:00,
2013-05-31 12:50:00,86.7,67.0,30.07,WNW,284,0.0,0.0,52,0.00,,,0.00,Wunderground v.1.12,2013-05-31 16:50:00,
2013-05-31 12:55:00,86.7,68.1,30.07,WNW,284,0.0,0.0,54,0.00,,,0.00,Wunderground v.1.12,2013-05-31 16:55:00,
2013-05-31 13:00:00,87.0,67.8,30.07,WNW,284,0.0,0.0,53,0.00,,,0.00,Wunderground v.1.12,2013-05-31 17:00:00,
2013-05-31 13:05:00,87.2,67.4,30.07,WNW,284,0.0,0.0,52,0.00,,,0.00,Wunderground v.1.12,2013-05-31 17:05:00,
2013-05-31 13:10:00,87.2,65.7,30.07,WNW,284,0.0,0.0,49,0.00,,,0.00,Wunderground v.1.12,2013-05-31 17:10:00,
2013-05-31 13:15:00,87.2,68.0,30.06,WNW,284,0.0,0.0,53,0.00,,,0.00,Wunderground v.1.12,2013-05-31 17:15:00,
2013-05-31 13:20:00,87.6,66.7,30.06,WNW,284,0.0,0.0,50,0.00,,,0.00,Wunderground v.1.12,2013-05-31 17:20:00,
2013-05-31 13:25:00,87.8,68.0,30.06,WNW,284,0.0,0.0,52,0.00,,,0.00,Wunderground v.1.12,2013-05-31 17:25:00,
2013-05-31 13:30:00,87.6,67.2,30.06,WNW,285,0.0,0.0,51,0.00,,,0.00,Wunderground v.1.12,2013-05-31 17:30:00,
2013-05-31 13:36:00,88.0,68.7,30.06,WNW,285,0.0,0.0,53,0.00,,,0.00,Wunderground v.1.12,2013-05-31 17:36:00,
2013-05-31 13:41:00,88.4,69.6,30.06,WNW,285,0.0,0.0,54,0.00,,,0.00,Wunderground v.1.12,2013-05-31 17:41:00,
2013-05-31 13:46:00,88.2,66.0,30.05,WNW,301,0.0,0.0,48,0.00,,,0.00,Wunderground v.1.12,2013-05-31 17:46:00,
2013-05-31 13:51:00,88.4,67.4,30.05,WNW,301,0.0,0.0,50,0.00,,,0.00,Wunderground v.1.12,2013-05-31 17:51:00,
2013-05-31 13:56:00,88.0,63.4,30.05,WNW,301,0.0,0.0,44,0.00,,,0.00,Wunderground v.1.12,2013-05-31 17:56:00,
2013-05-31 14:01:00,87.6,64.3,30.05,WNW,302,0.0,0.0,46,0.00,,,0.00,Wunderground v.1.12,2013-05-31 18:01:00,
2013-05-31 14:06:00,88.2,64.2,30.05,WNW,302,0.0,0.0,45,0.00,,,0.00,Wunderground v.1.12,2013-05-31 18:06:00,
2013-05-31 14:11:00,88.6,67.0,30.05,WNW,302,0.0,0.0,49,0.00,,,0.00,Wunderground v.1.12,2013-05-31 18:11:00,
2013-05-31 14:16:00,88.4,62.4,30.05,WNW,282,0.0,0.0,42,0.00,,,0.00,Wunderground v.1.12,2013-05-31 18:16:00,
2013-05-31 14:21:00,88.2,62.9,30.05,West,279,0.0,0.0,43,0.00,,,0.00,Wunderground v.1.12,2013-05-31 18:21:00,
2013-05-31 14:26:00,88.2,64.8,30.05,West,279,0.0,0.0,46,0.00,,,0.00,Wunderground v.1.12,2013-05-31 18:26:00,
2013-05-31 14:31:00,88.0,64.0,30.04,West,275,0.0,0.0,45,0.00,,,0.00,Wunderground v.1.12,2013-05-31 18:31:00,
2013-05-31 14:36:00,87.4,62.2,30.04,West,259,0.0,0.0,43,0.00,,,0.00,Wunderground v.1.12,2013-05-31 18:36:00,
2013-05-31 14:41:00,87.2,63.9,30.04,West,259,0.0,0.0,46,0.00,,,0.00,Wunderground v.1.12,2013-05-31 18:41:00,
2013-05-31 14:47:00,87.4,62.2,30.04,West,259,0.0,0.0,43,0.00,,,0.00,Wunderground v.1.12,2013-05-31 18:47:00,
2013-05-31 14:52:00,88.0,64.6,30.04,West,259,0.0,0.0,46,0.00,,,0.00,Wunderground v.1.12,2013-05-31 18:52:00,
2013-05-31 14:57:00,88.2,63.5,30.04,West,259,0.0,0.0,44,0.00,,,0.00,Wunderground v.1.12,2013-05-31 18:57:00,
2013-05-31 15:02:00,88.4,64.4,30.04,West,259,0.0,0.0,45,0.00,,,0.00,Wunderground v.1.12,2013-05-31 19:02:00,
2013-05-31 15:07:00,87.8,64.4,30.04,West,259,0.0,0.0,46,0.00,,,0.00,Wunderground v.1.12,2013-05-31 19:07:00,
2013-05-31 15:12:00,87.4,64.1,30.04,West,259,0.0,0.0,46,0.00,,,0.00,Wunderground v.1.12,2013-05-31 19:12:00,
2013-05-31 15:17:00,86.7,65.3,30.04,West,259,0.0,0.0,49,0.00,,,0.00,Wunderground v.1.12,2013-05-31 19:17:00,
2013-05-31 15:22:00,86.1,61.6,30.04,West,267,0.0,0.0,44,0.00,,,0.00,Wunderground v.1.12,2013-05-31 19:22:00,
2013-05-31 15:27:00,86.1,62.9,30.04,West,267,0.0,0.0,46,0.00,,,0.00,Wunderground v.1.12,2013-05-31 19:27:00,
2013-05-31 15:32:00,86.1,62.3,30.04,West,267,0.0,0.0,45,0.00,,,0.00,Wunderground v.1.12,2013-05-31 19:32:00,
2013-05-31 15:37:00,86.1,64.1,30.04,West,267,0.0,0.0,48,0.00,,,0.00,Wunderground v.1.12,2013-05-31 19:37:00,
2013-05-31 15:42:00,85.9,62.1,30.04,West,267,0.0,0.0,45,0.00,,,0.00,Wunderground v.1.12,2013-05-31 19:42:00,
2013-05-31 15:47:00,85.7,62.5,30.03,West,277,0.0,0.0,46,0.00,,,0.00,Wunderground v.1.12,2013-05-31 19:47:00,
2013-05-31 15:52:00,85.7,61.3,30.03,West,281,0.0,0.0,44,0.00,,,0.00,Wunderground v.1.12,2013-05-31 19:52:00,
2013-05-31 15:57:00,85.9,63.3,30.03,WNW,291,0.0,0.0,47,0.00,,,0.00,Wunderground v.1.12,2013-05-31 19:57:00,
2013-05-31 16:02:00,85.9,62.1,30.03,WNW,291,0.0,0.0,45,0.00,,,0.00,Wunderground v.1.12,2013-05-31 20:02:00,
2013-05-31 16:07:00,86.1,63.5,30.03,WNW,291,0.0,0.0,47,0.00,,,0.00,Wunderground v.1.12,2013-05-31 20:07:00,
2013-05-31 16:12:00,86.3,63.7,30.02,WNW,291,0.0,0.0,47,0.00,,,0.00,Wunderground v.1.12,2013-05-31 20:12:00,
2013-05-31 16:17:00,86.5,63.3,30.02,WSW,252,0.0,0.0,46,0.00,,,0.00,Wunderground v.1.12,2013-05-31 20:17:00,
2013-05-31 16:22:00,86.5,62.0,30.02,WSW,252,0.0,0.0,44,0.00,,,0.00,Wunderground v.1.12,2013-05-31 20:22:00,
2013-05-31 16:27:00,86.5,60.0,30.02,WSW,252,0.0,0.0,41,0.00,,,0.00,Wunderground v.1.12,2013-05-31 20:27:00,
2013-05-31 16:32:00,86.3,61.2,30.02,WSW,252,0.0,0.0,43,0.00,,,0.00,Wunderground v.1.12,2013-05-31 20:32:00,
2013-05-31 16:37:00,85.9,60.8,30.02,WSW,252,0.0,0.0,43,0.00,,,0.00,Wunderground v.1.12,2013-05-31 20:37:00,
2013-05-31 16:42:00,85.7,63.1,30.01,WSW,252,0.0,0.0,47,0.00,,,0.00,Wunderground v.1.12,2013-05-31 20:42:00,
2013-05-31 16:47:00,85.1,62.6,30.01,WSW,252,0.0,0.0,47,0.00,,,0.00,Wunderground v.1.12,2013-05-31 20:47:00,
2013-05-31 16:52:00,84.7,64.0,30.01,WSW,252,0.0,0.0,50,0.00,,,0.00,Wunderground v.1.12,2013-05-31 20:52:00,
2013-05-31 16:57:00,84.1,62.9,30.01,WSW,252,0.0,0.0,49,0.00,,,0.00,Wunderground v.1.12,2013-05-31 20:57:00,
2013-05-31 17:03:00,84.0,63.9,30.01,WSW,252,0.0,0.0,51,0.00,,,0.00,Wunderground v.1.12,2013-05-31 21:03:00,
2013-05-31 17:08:00,83.8,62.0,30.01,WSW,252,0.0,0.0,48,0.00,,,0.00,Wunderground v.1.12,2013-05-31 21:08:00,
2013-05-31 17:13:00,83.6,65.2,30.01,WSW,252,0.0,0.0,54,0.00,,,0.00,Wunderground v.1.12,2013-05-31 21:13:00,
2013-05-31 17:18:00,83.6,65.2,30.01,West,279,0.0,0.0,54,0.00,,,0.00,Wunderground v.1.12,2013-05-31 21:18:00,
2013-05-31 17:23:00,83.6,61.8,30.01,North,11,0.0,0.0,48,0.00,,,0.00,Wunderground v.1.12,2013-05-31 21:23:00,
2013-05-31 17:28:00,83.8,60.2,30.01,North,11,0.0,0.0,45,0.00,,,0.00,Wunderground v.1.12,2013-05-31 21:28:00,
2013-05-31 17:33:00,84.1,61.1,30.01,WNW,290,0.0,0.0,46,0.00,,,0.00,Wunderground v.1.12,2013-05-31 21:33:00,
2013-05-31 17:38:00,84.3,59.4,30.01,WNW,290,0.0,0.0,43,0.00,,,0.00,Wunderground v.1.12,2013-05-31 21:38:00,
2013-05-31 17:43:00,84.5,60.8,30.00,WNW,290,0.0,0.0,45,0.00,,,0.00,Wunderground v.1.12,2013-05-31 21:43:00,
2013-05-31 17:48:00,84.5,60.8,30.00,WNW,290,0.0,0.0,45,0.00,,,0.00,Wunderground v.1.12,2013-05-31 21:48:00,
2013-05-31 17:54:00,84.5,59.5,30.00,WNW,290,0.0,0.0,43,0.00,,,0.00,Wunderground v.1.12,2013-05-31 21:54:00,
2013-05-31 17:59:00,84.5,59.5,29.99,WNW,290,0.0,0.0,43,0.00,,,0.00,Wunderground v.1.12,2013-05-31 21:59:00,
2013-05-31 18:04:00,84.5,60.2,29.99,WNW,290,0.0,0.0,44,0.00,,,0.00,Wunderground v.1.12,2013-05-31 22:04:00,
2013-05-31 18:09:00,84.3,58.0,29.99,WNW,290,0.0,0.0,41,0.00,,,0.00,Wunderground v.1.12,2013-05-31 22:09:00,
2013-05-31 18:14:00,84.3,59.4,30.00,WNW,290,0.0,0.0,43,0.00,,,0.00,Wunderground v.1.12,2013-05-31 22:14:00,
2013-05-31 18:20:00,84.1,60.5,30.00,West,276,0.0,0.0,45,0.00,,,0.00,Wunderground v.1.12,2013-05-31 22:20:00,
2013-05-31 18:25:00,84.0,59.7,30.00,West,276,0.0,0.0,44,0.00,,,0.00,Wunderground v.1.12,2013-05-31 22:25:00,
2013-05-31 18:30:00,84.0,59.1,30.00,WNW,283,0.0,0.0,43,0.00,,,0.00,Wunderground v.1.12,2013-05-31 22:30:00,
2013-05-31 18:35:00,84.0,59.1,30.00,WNW,289,0.0,0.0,43,0.00,,,0.00,Wunderground v.1.12,2013-05-31 22:35:00,
2013-05-31 18:40:00,83.8,60.2,30.00,WNW,289,0.0,0.0,45,0.00,,,0.00,Wunderground v.1.12,2013-05-31 22:40:00,
2013-05-31 18:45:00,83.4,59.2,30.00,NE,51,0.0,0.0,44,0.00,,,0.00,Wunderground v.1.12,2013-05-31 22:45:00,
2013-05-31 18:50:00,83.2,60.3,30.00,NE,50,0.0,0.0,46,0.00,,,0.00,Wunderground v.1.12,2013-05-31 22:50:00,
2013-05-31 18:55:00,82.8,59.3,30.00,East,82,0.0,0.0,45,0.00,,,0.00,Wunderground v.1.12,2013-05-31 22:55:00,
2013-05-31 19:00:00,82.4,58.3,29.99,SW,226,0.0,0.0,44,0.00,,,0.00,Wunderground v.1.12,2013-05-31 23:00:00,
2013-05-31 19:05:00,82.2,58.1,29.99,WSW,256,0.0,0.0,44,0.00,,,0.00,Wunderground v.1.12,2013-05-31 23:05:00,
2013-05-31 19:10:00,81.8,59.0,29.99,WNW,283,0.0,0.0,46,0.00,,,0.00,Wunderground v.1.12,2013-05-31 23:10:00,
2013-05-31 19:15:00,81.4,58.6,30.00,WNW,284,0.0,0.0,46,0.00,,,0.00,Wunderground v.1.12,2013-05-31 23:15:00,
2013-05-31 19:20:00,81.1,57.7,30.00,NE,53,0.0,0.0,45,0.00,,,0.00,Wunderground v.1.12,2013-05-31 23:20:00,
2013-05-31 19:25:00,80.7,58.0,30.00,NE,52,0.0,0.0,46,0.00,,,0.00,Wunderground v.1.12,2013-05-31 23:25:00,
2013-05-31 19:30:00,80.5,57.2,30.00,NE,52,0.0,0.0,45,0.00,,,0.00,Wunderground v.1.12,2013-05-31 23:30:00,
2013-05-31 19:35:00,79.9,55.4,30.00,ENE,61,0.0,0.0,43,0.00,,,0.00,Wunderground v.1.12,2013-05-31 23:35:00,
2013-05-31 19:41:00,79.8,58.9,30.00,South,186,0.0,0.0,49,0.00,,,0.00,Wunderground v.1.12,2013-05-31 23:41:00,
2013-05-31 19:46:00,79.6,54.5,30.00,NE,40,0.0,0.0,42,0.00,,,0.00,Wunderground v.1.12,2013-05-31 23:46:00,
2013-05-31 19:51:00,79.4,55.0,30.00,ENE,68,0.0,0.0,43,0.00,,,0.00,Wunderground v.1.12,2013-05-31 23:51:00,
2013-05-31 19:56:00,79.2,56.6,30.00,East,94,0.0,0.0,46,0.00,,,0.00,Wunderground v.1.12,2013-05-31 23:56:00,
2013-05-31 20:01:00,78.6,54.2,30.00,East,94,0.0,0.0,43,0.00,,,0.00,Wunderground v.1.12,2013-06-01 00:01:00,
2013-05-31 20:06:00,78.3,53.3,30.00,East,94,0.0,0.0,42,0.00,,,0.00,Wunderground v.1.12,2013-06-01 00:06:00,
2013-05-31 20:11:00,77.9,53.6,30.00,East,94,0.0,0.0,43,0.00,,,0.00,Wunderground v.1.12,2013-06-01 00:11:00,
2013-05-31 20:16:00,77.7,53.4,30.00,ESE,109,0.0,0.0,43,0.00,,,0.00,Wunderground v.1.12,2013-06-01 00:16:00,
2013-05-31 20:21:00,77.4,53.1,30.00,ESE,109,0.0,0.0,43,0.00,,,0.00,Wunderground v.1.12,2013-06-01 00:21:00,
2013-05-31 20:26:00,77.4,53.1,30.00,ESE,109,0.0,0.0,43,0.00,,,0.00,Wunderground v.1.12,2013-06-01 00:26:00,
2013-05-31 20:31:00,77.2,54.2,30.00,ESE,107,0.0,0.0,45,0.00,,,0.00,Wunderground v.1.12,2013-06-01 00:31:00,
2013-05-31 20:36:00,77.2,54.2,30.00,ESE,107,0.0,0.0,45,0.00,,,0.00,Wunderground v.1.12,2013-06-01 00:36:00,
2013-05-31 20:41:00,77.0,54.6,30.00,ESE,107,0.0,0.0,46,0.00,,,0.00,Wunderground v.1.12,2013-06-01 00:41:00,
2013-05-31 20:47:00,77.0,55.2,30.00,ESE,107,0.0,0.0,47,0.00,,,0.00,Wunderground v.1.12,2013-06-01 00:47:00,
2013-05-31 20:52:00,76.8,54.5,30.00,ESE,107,0.0,0.0,46,0.00,,,0.00,Wunderground v.1.12,2013-06-01 00:52:00,
2013-05-31 20:57:00,76.7,55.0,30.00,ESE,109,0.0,0.0,47,0.00,,,0.00,Wunderground v.1.12,2013-06-01 00:57:00,
2013-05-31 21:02:00,76.5,55.3,30.01,ESE,109,0.0,0.0,48,0.00,,,0.00,Wunderground v.1.12,2013-06-01 01:02:00,
2013-05-31 21:07:00,76.3,55.7,30.01,ESE,109,0.0,0.0,49,0.00,,,0.00,Wunderground v.1.12,2013-06-01 01:07:00,
2013-05-31 21:12:00,76.1,56.1,30.01,ESE,109,0.0,0.0,50,0.00,,,0.00,Wunderground v.1.12,2013-06-01 01:12:00,
2013-05-31 21:17:00,76.1,56.7,30.01,ESE,108,0.0,0.0,51,0.00,,,0.00,Wunderground v.1.12,2013-06-01 01:17:00,
2013-05-31 21:22:00,76.0,57.1,30.01,ESE,108,0.0,0.0,52,0.00,,,0.00,Wunderground v.1.12,2013-06-01 01:22:00,
2013-05-31 21:27:00,75.8,56.9,30.01,ESE,108,0.0,0.0,52,0.00,,,0.00,Wunderground v.1.12,2013-06-01 01:27:00,
2013-05-31 21:32:00,75.6,57.8,30.01,ESE,108,0.0,0.0,54,0.00,,,0.00,Wunderground v.1.12,2013-06-01 01:32:00,
2013-05-31 21:37:00,75.4,58.6,30.01,ESE,108,0.0,0.0,56,0.00,,,0.00,Wunderground v.1.12,2013-06-01 01:37:00,
2013-05-31 21:42:00,75.3,59.5,30.01,ESE,108,0.0,0.0,58,0.00,,,0.00,Wunderground v.1.12,2013-06-01 01:42:00,
2013-05-31 21:47:00,75.3,60.0,30.01,ENE,71,0.0,0.0,59,0.00,,,0.00,Wunderground v.1.12,2013-06-01 01:47:00,
2013-05-31 21:52:00,75.3,60.9,30.01,ENE,71,0.0,0.0,61,0.00,,,0.00,Wunderground v.1.12,2013-06-01 01:52:00,
2013-05-31 21:57:00,75.3,60.9,30.02,ENE,71,0.0,0.0,61,0.00,,,0.00,Wunderground v.1.12,2013-06-01 01:57:00,
2013-05-31 22:02:00,75.3,60.9,30.02,ENE,71,0.0,0.0,61,0.00,,,0.00,Wunderground v.1.12,2013-06-01 02:02:00,
2013-05-31 22:07:00,75.3,60.9,30.02,ENE,71,0.0,0.0,61,0.00,,,0.00,Wunderground v.1.12,2013-06-01 02:07:00,
2013-05-31 22:12:00,75.3,61.4,30.02,ENE,71,0.0,0.0,62,0.00,,,0.00,Wunderground v.1.12,2013-06-01 02:12:00,
2013-05-31 22:18:00,75.3,61.8,30.02,SSW,196,0.0,0.0,63,0.00,,,0.00,Wunderground v.1.12,2013-06-01 02:18:00,
2013-05-31 22:23:00,75.1,61.6,30.02,SSW,196,0.0,0.0,63,0.00,,,0.00,Wunderground v.1.12,2013-06-01 02:23:00,
2013-05-31 22:28:00,75.1,62.1,30.02,SSW,196,0.0,0.0,64,0.00,,,0.00,Wunderground v.1.12,2013-06-01 02:28:00,
2013-05-31 22:33:00,74.9,62.3,30.02,SSW,196,0.0,0.0,65,0.00,,,0.00,Wunderground v.1.12,2013-06-01 02:33:00,
2013-05-31 22:38:00,74.7,62.1,30.02,SSW,196,0.0,0.0,65,0.00,,,0.00,Wunderground v.1.12,2013-06-01 02:38:00,
2013-05-31 22:43:00,74.6,62.1,30.02,SSW,196,0.0,0.0,65,0.00,,,0.00,Wunderground v.1.12,2013-06-01 02:43:00,
2013-05-31 22:49:00,74.4,62.3,30.02,ESE,119,0.0,0.0,66,0.00,,,0.00,Wunderground v.1.12,2013-06-01 02:49:00,
2013-05-31 22:54:00,74.2,62.5,30.02,ESE,119,0.0,0.0,67,0.00,,,0.00,Wunderground v.1.12,2013-06-01 02:54:00,
2013-05-31 22:59:00,74.2,62.5,30.01,SE,124,0.0,0.0,67,0.00,,,0.00,Wunderground v.1.12,2013-06-01 02:59:00,
2013-05-31 23:04:00,74.4,63.1,30.01,East,86,0.0,0.0,68,0.00,,,0.00,Wunderground v.1.12,2013-06-01 03:04:00,
2013-05-31 23:09:00,74.2,63.0,30.01,East,86,0.0,0.0,68,0.00,,,0.00,Wunderground v.1.12,2013-06-01 03:09:00,
2013-05-31 23:14:00,74.2,63.0,30.01,East,86,0.0,0.0,68,0.00,,,0.00,Wunderground v.1.12,2013-06-01 03:14:00,
2013-05-31 23:19:00,74.2,63.0,30.01,East,86,0.0,0.0,68,0.00,,,0.00,Wunderground v.1.12,2013-06-01 03:19:00,
2013-05-31 23:24:00,74.0,63.2,30.01,East,86,0.0,0.0,69,0.00,,,0.00,Wunderground v.1.12,2013-06-01 03:24:00,
2013-05-31 23:30:00,74.0,63.2,30.01,East,86,0.0,0.0,69,0.00,,,0.00,Wunderground v.1.12,2013-06-01 03:30:00,
2013-05-31 23:35:00,73.9,63.1,30.01,South,182,0.0,0.0,69,0.00,,,0.00,Wunderground v.1.12,2013-06-01 03:35:00,
2013-05-31 23:40:00,73.7,63.3,30.01,South,182,0.0,0.0,70,0.00,,,0.00,Wunderground v.1.12,2013-06-01 03:40:00,
2013-05-31 23:45:00,73.5,63.5,30.00,South,182,0.0,0.0,71,0.00,,,0.00,Wunderground v.1.12,2013-06-01 03:45:00,
2013-05-31 23:50:00,73.5,63.5,30.00,South,182,0.0,0.0,71,0.00,,,0.00,Wunderground v.1.12,2013-06-01 03:50:00,
2013-05-31 23:55:00,73.3,63.3,30.00,South,182,0.0,0.0,71,0.00,,,0.00,Wunderground v.1.12,2013-06-01 03:55:00,